www.pogodaiklimat.ru

Погода и климат >> Архив погоды >> Россия >> Сахалинская область >> Поронайск


ПОГОДА в Поронайске

  • Прогноз погоды в Поронайске
  • Монитор погоды в Поронайске
  • Климат города

АРХИВ ПОГОДЫ в Поронайске

Время (UTC), дата Ветер
(напр.,м/с)
 
Видим.   Явления Облачность Т
(С)
Тd
(С)
f
(%)
Тe
(С)
Тes
(С)
Комфортность P
(гПа)
Po
(гПа)
Тmin
(С)
Tmax
(С)
R
(мм)
R24
(мм)
S
(см)
09 15.10 В 3-5
{5}
20 км 9/9 210 м
[Cb cap]
+10.9 +10.2 95 +9 +9 1014.0 1012.9 +12.0
12 15.10 В 4-6
{7}
10 км слабый ливневой дождь 10/10 240 м
[Cb cap]
+10.5 +10.1 97 +8 +8 1012.7 1011.6
15 15.10 Ю 5-7
{7}
20 км {ливн. осадки} 10/10 330 м
[St]
+11.2 +10.1 93 +8 +8 1011.4 1010.3
18 15.10 Ю 2-3
{8}
20 км в посл. час ливневой дождь 10/8 300 м
[St Ci ing]
+10.9 +10.2 95 +9 +9 1010.0 1008.9
21 15.10 Ю 4-5
{6}
10 км слабый ливневой дождь 10/10 240 м
[Cb cap]
+10.4 +9.9 97 +8 +8 1008.3 1007.2 +10.4 0.9
00 16.10 ЮЗ 5-10
{10}
10 км слабый ливневой дождь 10/8 570 м
[Cb cap Ac trans Ci ing]
+9.8 +8.0 89 +7 +7 1006.3 1005.2 +8.9
03 16.10 З 4-6
{13}
10 км слабый ливневой дождь 10/6 600 м
[Cb cap Ac trans Ci ing]
+7.5 +4.4 81 +4 +5 1005.5 1004.4
06 16.10 З 7-10
{11}
20 км {ливн. осадки} 4/3 600 м
[Cb cap Ac trans]
+9.9 +0.4 52 +7 +7 1005.6 1004.5
09 16.10 ЮЗ 6-9
{12}
20 км 3/3 600 м
[Cb cap Ac trans]
+6.9 +2.8 75 +3 +3 1005.9 1004.8 +12.2 6
12 16.10 ЮЗ 7-9
{10}
20 км 1/1 600 м
[Cb cap]
+7.6 +0.9 62 +3 +3 1005.4 1004.3
15 16.10 З 2-3
{9}
20 км ясно +2.0 -0.9 81 -1 -1 1004.0 1002.9
18 16.10 С 3-4
{4}
20 км ясно -1.0 -1.4 97 -6 -6 1002.7 1001.6
21 16.10 С 3-5
{5}
20 км 5/3 600 м
[Cb cap Ac cast]
-0.5 -1.0 96 -5 -5 1003.2 1002.1 -1.0
00 17.10 С 4-7
{7}
20 км 8/3 600 м
[Cb cap Ac trans Ci fib]
+6.2 +2.2 76 +3 +3 1003.5 1002.4
03 17.10 С 7-12
{12}
20 км осадки на расстоянии 6/6 600 м
[Cb cap]
+10.1 -0.5 48 +7 +7 1003.8 1002.7
06 17.10 С 4-7
{14}
20 км 3/3 1000 м
[Cu med, cong Ac lent]
+8.5 -1.0 51 +6 +6 1004.7 1003.6
09 17.10 З 3-3
{7}
20 км 9/3 600 м
[Cb cap Ac trans Ci fib]
+2.6 -0.5 80 -1 -1 1006.2 1005.0 +10.3
12 17.10 С 2-2
{3}
20 км 9/1 600 м
[Cb cap Ci fib]
+1.8 0.0 88 -2 -2 1006.4 1005.3
15 17.10 З 3-3
{4}
20 км 10/3 600 м
[Cb cap Ci ing]
+2.6 +0.3 85 -2 -2 1006.1 1005.0
18 17.10 З 3-3
{4}
20 км 10/3 600 м
[Cb cap Ac trans Ci ing]
+3.8 0.0 76 0 0 1005.8 1004.7
21 17.10 СЗ 4-6
{7}
20 км слабый ливневой дождь 10/5 600 м
[Cb cap Ac trans Ci ing]
+4.3 +2.1 86 -0 -0 1006.4 1005.3 +0.9 0.7
00 18.10 СЗ 5-10
{12}
20 км {ливн. осадки} 10/4 600 м
[Cb cap Ci ing]
+9.0 +1.9 61 +6 +7 1008.9 1007.8
03 18.10 С 6-13
{15}
20 км 10/3 600 м
[Cb cap Cc]
+11.2 +0.7 48 +9 +10 1010.4 1009.3
06 18.10 СЗ 5-8
{15}
20 км 8/3 600 м
[Cb cap Ac lent Cc]
+9.4 -0.6 50 +7 +7 1012.7 1011.6
09 18.10 СЗ 3-5
{8}
20 км 3/1 600 м
[Cb cap Ci fib]
+3.4 -1.4 71 -0 -0 1015.7 1014.6 +11.7 0.0
12 18.10 З 3-4
{5}
20 км ясно +1.4 -1.3 82 -3 -3 1016.6 1015.5
15 18.10 З 2-3
{5}
20 км 4/4 1000 м
[Cu med, cong]
+2.3 -0.2 84 -1 -1 1016.9 1015.8
18 18.10 З 3-4
{6}
20 км ясно +3.0 -0.6 77 -1 -1 1016.9 1015.8
21 18.10 ЮЗ 3-4
{5}
20 км 1/1 1000 м
[Cu hum]
+2.0 -1.1 80 -2 -2 1017.4 1016.3 +0.9
00 19.10 ЮЗ 4-5
{6}
20 км 10/1 600 м
[Cb cap Ci ing]
+8.1 +1.2 62 +5 +6 1017.5 1016.4
03 19.10 З 3-4
{6}
20 км 10/1 600 м
[Cb cap Ac As Ci ing]
+9.8 -0.3 49 +8 +10 1016.2 1015.1
06 19.10 ЮЗ 4-5
{6}
20 км 10/4 600 м
[Cb cap Ac lent Ci ing]
+8.8 +1.3 59 +6 +6 1015.7 1014.6
09 19.10 СЗ 2-4
{7}
20 км 10/3 600 м
[Cb cap Ac lent Ci ing]
+6.3 +0.6 67 +4 +4 1016.3 1015.2 +9.9
12 19.10 СЗ 1-2
{4}
20 км {ливн. осадки} 10/3 600 м
[Cb cap Ci fib]
+3.3 +1.1 85 +2 +2 1017.3 1016.2
15 19.10 СЗ 2-2
{3}
20 км 10/1 600 м
[Cb cap Ac trans Ci fib]
+1.3 +0.7 96 -2 -2 1017.1 1016.0
18 19.10 С 2-3
{3}
20 км ясно -0.1 -0.4 98 -4 -4 1017.3 1016.2
21 19.10 С 2-2
{3}
20 км 1/1 600 м
[Cb cap]
-1.2 -1.5 98 -5 -5 1017.3 1016.2 -2.3 0.0
00 20.10 Ю 1-2
{3}
20 км 3/0
[Ci fib]
+6.2 +2.0 74 +5 +8 1017.6 1016.5
03 20.10 Ю 2-4
{5}
20 км 4/4 600 м
[Cb cap]
+8.2 +2.7 68 +7 +9 1016.0 1014.9
06 20.10 С 3-4
{9}
20 км 6/4 600 м
[Cb cap Ac lent]
+10.6 -1.6 43 +9 +10 1015.1 1014.0
09 20.10 З 1-2
{5}
20 км 6/3 600 м
[Cb cap Ac trans]
+4.6 -1.3 66 +4 +4 1015.7 1014.6 +10.7
12 20.10 ЮЗ 1-2
{3}
20 км 10/3 600 м
[Cb cap Ac As Ci ing]
+3.8 -0.0 76 +3 +3 1015.6 1014.5
15 20.10 С 3-4
{5}
20 км {ливн. осадки} 8/3 600 м
[Cb cap Ac trans]
+4.3 +1.7 83 +1 +1 1015.5 1014.4
18 20.10 С 2-3
{8}
20 км {ливн. осадки} ясно +1.4 0.0 90 -2 -2 1016.8 1015.7
21 20.10 СЗ 2-3
{4}
20 км 1/1 600 м
[Cb cap]
-0.6 -1.5 94 -4 -4 1018.5 1017.3 -0.6 0.0
00 21.10 С 5-9
{9}
20 км 3/3 1000 м
[Cu med, cong]
+5.3 -1.5 61 +1 +2 1020.0 1018.8 -0.7
03 21.10 С 5-8
{10}
20 км 6/6 600 м
[Sc]
+7.4 -4.9 41 +4 +5 1019.8 1018.7
06 21.10 С 4-6
{8}
20 км 9/0
[Ac trans]
+6.4 -4.5 46 +3 +4 1021.1 1020.0
09 21.10 СВ 1-2
{6}
20 км 3/0
[Ac trans]
+3.0 -2.9 65 +2 +2 1022.9 1021.7 +7.8
12 21.10 СЗ 2-2
{3}
20 км ясно -2.8 -4.6 87 -7 -7 1024.1 1022.9
15 21.10 СЗ 2-3
{3}
20 км ясно -3.1 -5.1 86 -7 -7 1024.4 1023.3
18 21.10 СЗ 2-3
{3}
20 км 5/3 600 м
[Cb cap Ac trans]
-1.6 -4.2 82 -5 -5 1024.4 1023.3
21 21.10 С 1-1
{4}
20 км 9/3 600 м
[Cb cap Ac trans Ci ing]
-0.6 -2.9 84 -3 -3 1024.9 1023.8 -3.6
00 22.10 ЮВ 1-2
{3}
20 км 8/3 600 м
[Cb cap Ac trans]
+4.5 -1.0 67 +4 +5 1025.4 1024.3
03 22.10 ЮЗ 6-8
{8}
20 км 8/8 600 м
[Cb cap]
+8.7 +2.5 65 +5 +5 1024.1 1023.0

 

Местоположение метеостанции Поронайск (Сахалинская область, Россия): широта 49.22 долгота 143.10 высота над уровнем моря 8 м.

В архиве по умолчанию представлена погода в Поронайске за последнюю неделю. Архивные данные за месяц целиком и за предыдущие месяцы, начиная с января 2011 года, Вы можете получить, выбрав интересующий диапазон дат из раскрывающегося списка и нажав кнопку "Ввод!".


*Определитесь, кто Вы:
робот инопланетянин человек

Внимание! Время в таблицах - всемирное. Для получения местного времени необходимо прибавить поправку, которая в Поронайске равна 11 ч.

Смотрите также архив погоды в соседних городах и на ближайших метеорологических станциях:

Погода в Макарове (Сахалинская область, Россия) (73 км)
Погода в Углегорске (Сахалинская область, Россия) (82 км)
Погода в Первомайском (Сахалинская область, Россия) (84 км)
Погода в Пильво (Сахалинская область, Россия) (117 км)
Погода в Оноре (Сахалинская область, Россия) (120 км)
Погода на Мысе Терпения (Сахалинская область, Россия) (133 км)
Погода в Пограничном (Сахалинская область, Россия) (138 км)
Погода в Ильинском (Сахалинская область, Россия) (153 км)
Погода в Тымовском (Сахалинская область, Россия) (170 км)
Погода в Александровск-Сахалинском (Сахалинская область, Россия) (200 км)

Пояснения к столбцам:

Ветер - указаны скорость ветра в м/с - средняя за 10 мин, порывы в срок и между сроками (в фигурных скобках) и направление, откуда дует ветер: С - северный, СВ - северо-восточный, В - восточный, ЮВ - юго-восточный, Ю - южный, ЮЗ - юго-западный, З - западный, СЗ - северо-западный.
Видимость - горизонтальная дальность видимости в метрах или километрах. При видимости от 1 до 10 км при отсутствии осадков обычно наблюдается дымка, при ухудшении видимости до 1 км и менее - туман. В сухую погоду видимость может ухудшаться дымом, пылью или мглою.
Явления - указаны атмосферные явления, наблюдавшиеся в срок или в последний час перед сроком; фигурными скобками обозначены явления, наблюдавшиеся между сроками (за 1-3 часа до срока); квадратными скобками обозначены град или гололедные отложения с указанием их диаметра в мм.
Облачность - указаны через наклонную черту общая и нижняя облачность в баллах и высота нижней границы облаков в метрах; квадратными скобками обозначены формы облаков: Ci - перистые, Cs - перисто-слоистые, Cc - перисто-кучевые, Ac - высококучевые, As - высокослоистые, Sc - слоисто-кучевые, Ns - слоисто-дождевые, Cu - кучевые, Cb - кучево-дождевые. Подробнее классификацию облаков см. в Атласе облаков (PDF).
T - Температура воздуха - температура, измеренная на высоте 2 м над землей.
Td - Температура точки росы - температура, при понижении до которой содержащийся в воздухе водяной пар достигнет насыщения.
f - Относительная влажность воздуха - влажноcть воздуха, измеренная на высоте 2 м над землей.
Te - Эффективная температура - температура, которую ощущает одетый по сезону человек в тени. Характеристика душности погоды. При расчете учитывается влияние влажности воздуха и скорости ветра на теплоощущения человека.
Tes - Эффективная температура на солнце - температура, которую ощущает человек, с поправкой на солнечный нагрев. Характеристика знойности погоды. Зависит от высоты солнца над горизонтом, облачности и скорости ветра. Ночью, в пасмурную погоду, а также при ветре 12 м/с и более поправка равна нулю.
P - Атмосферное давление - приведенное к уровню моря атмосферное давление.
Po - Атмосферное давление - измеренное на уровне метеостанции атмосферное давление.
Tmin - Минимальная температура - минимум температуры воздуха на высоте 2 м над землей.
Tmax - Максимальная температура - максимум температуры воздуха на высоте 2 м над землей.
R - Количество осадков - Количество выпавших осадков за период времени, мм. При наведении курсора мыши на число - период времени, за который выпало указанное количество осадков.
R24 - Количество осадков - Количество выпавших осадков за 24 часа, мм.
S - Снежный покров - Высота снежного покрова, см. При наведении курсора мыши на число - состояние снежного покрова и степень покрытия местности в баллах.